Helder met enkele lage wolken
Helder met enkele lage wolken
Overwegend bewolkt
Bewolkt met lichte regen
Overwegend bewolkt
Bewolkt met lichte regen
Bewolkt
(°C)
15°
15°
14°
14°
14°
14°
15°
15°
17°
17°
17°
17°
18°
18°
(°C)
10°
10°
12°
13°
14°
13°
W
W
W
WNW
WNW
NW
NNW
(km/h)
18-31
17-30
16-29
16-28
17-30
18-35
19-35
(mm)
0
0
0
0.1
0
0.1
0
(%)
0
0
7
31
40
42
43

Zonverhoging

/ -6.8°
sun-icon
UV 3
03:11
20:08
Afnemende gibbous maan (216°)
23:57
04:18

METAR voor 55.61°N 49.28°O (UWKD)

Tijd Voorwaarden Temperatuur/
Dauwpunt
Wind Zicht Weer Wolken Luchtdruk Wijzigen Ruw
VFR 15°C / 4°C 300º 10kt 9700m - Clouds and Visibility OK 1018 No Significant change UWKD 252230Z 30005MPS CAVOK 15/04 Q1018 R29/CLRD70 NOSIG RMK QFE752/1003
VFR 17°C / 4°C 290º 10kt 9700m - Clouds and Visibility OK 1018 No Significant change UWKD 252200Z 29005MPS CAVOK 17/04 Q1018 R29/CLRD70 NOSIG RMK QFE752/1003
VFR 17°C / 4°C 280º 12kt 9700m - Clouds and Visibility OK 1018 No Significant change UWKD 252130Z 28006MPS CAVOK 17/04 Q1018 R29/CLRD70 NOSIG RMK QFE752/1003
VFR 17°C / 4°C 280º 14kt 9700m - Clouds and Visibility OK 1018 No Significant change UWKD 252100Z 28007MPS CAVOK 17/04 Q1018 R29/70D NOSIG RMK QFE752/1003
VFR 17°C / 4°C 280º 14kt 9700m - Clouds and Visibility OK 1018 No Significant change UWKD 252030Z 28007MPS CAVOK 17/04 Q1018 R29/CLRD70 NOSIG RMK QFE752/1003
VFR 18°C / 4°C 270º 14kt 9700m - Clouds and Visibility OK 1018 No Significant change UWKD 252000Z 27007MPS CAVOK 18/04 Q1018 R29/70D NOSIG RMK QFE752/1003
VFR 18°C / 4°C 280º 16kt 9700m - Scattered Clouds 3300ft 1018 No Significant change UWKD 251930Z 28008MPS 9999 SCT033 18/04 Q1018 R29/CLRD70 NOSIG RMK QFE752/1003
VFR 19°C / 4°C 270º 16kt 9700m - Scattered Clouds 3200ft 1018 No Significant change UWKD 251900Z 27008MPS 9999 SCT032 19/04 Q1018 R29/CLRD70 NOSIG RMK QFE753/1004
VFR 19°C / 3°C 270º 14kt 9700m - Clouds and Visibility OK 1019 No Significant change UWKD 251830Z 27007MPS CAVOK 19/03 Q1019 R29/CLRD70 NOSIG RMK QFE753/1004
VFR 20°C / 4°C 280º 14kt 9700m - Clouds and Visibility OK 1019 No Significant change UWKD 251800Z 28007MPS CAVOK 20/04 Q1019 R29/CLRD70 NOSIG RMK QFE753/1004
VFR 20°C / 4°C 280º 16kt 9700m - Clouds and Visibility OK 1019 No Significant change UWKD 251730Z 28008MPS CAVOK 20/04 Q1019 R29/CLRD70 NOSIG RMK QFE753/1004
VFR 21°C / 4°C 280º 16kt 9700m - Clouds and Visibility OK 1019 No Significant change UWKD 251700Z 28008MPS CAVOK 21/04 Q1019 R29/CLRD70 NOSIG RMK QFE753/1004
VFR 22°C / 4°C 280º 14kt 9700m - Clouds and Visibility OK 1019 No Significant change UWKD 251630Z 28007MPS CAVOK 22/04 Q1019 R29/70D NOSIG RMK QFE753/1004
VFR 23°C / 4°C 280º 16kt Gust 25kt 9700m - Clouds and Visibility OK 1019 No Significant change UWKD 251600Z 28008G13MPS CAVOK 23/04 Q1019 R29/CLRD70 NOSIG RMK QFE753/1004
VFR 23°C / 4°C 280º 19kt Gust 29kt 9700m - Clouds and Visibility OK 1019 No Significant change UWKD 251530Z 28010G15MPS CAVOK 23/04 Q1019 R29/CLRD70 NOSIG RMK QFE753/1004
VFR 24°C / 4°C 290º 19kt Gust 29kt 9700m - Clouds and Visibility OK 1019 No Significant change UWKD 251500Z 29010G15MPS CAVOK 24/04 Q1019 R29/CLRD70 NOSIG RMK QFE753/1004
VFR 24°C / 3°C 280º 17kt Gust 27kt 9700m - Clouds and Visibility OK 1019 No Significant change UWKD 251430Z 28009G14MPS CAVOK 24/03 Q1019 R29/70D NOSIG RMK QFE753/1004
VFR 25°C / 3°C 280º 19kt Gust 29kt 9700m - Clouds and Visibility OK 1020 No Significant change UWKD 251400Z 28010G15MPS CAVOK 25/03 Q1020 R29/CLRD70 NOSIG RMK QFE753/1005
VFR 25°C / 3°C 280º 19kt Gust 29kt 9700m - Clouds and Visibility OK 1020 No Significant change UWKD 251330Z 28010G15MPS CAVOK 25/03 Q1020 R29/CLRD70 NOSIG RMK QFE754/1005
VFR 25°C / 3°C 280º 19kt Gust 29kt 9700m - Clouds and Visibility OK 1020 No Significant change UWKD 251300Z 28010G15MPS CAVOK 25/03 Q1020 R29/70D NOSIG RMK QFE754/1005
VFR 25°C / 4°C 270º 19kt Gust 29kt 9700m - Clouds and Visibility OK 1021 No Significant change UWKD 251230Z 27010G15MPS CAVOK 25/04 Q1021 R29/CLRD70 NOSIG RMK QFE754/1006
VFR 25°C / 4°C 280º 19kt Gust 29kt 9700m - Clouds and Visibility OK 1021 No Significant change UWKD 251200Z 28010G15MPS CAVOK 25/04 Q1021 R29/CLRD70 NOSIG RMK QFE754/1006
VFR 26°C / 4°C 280º 21kt Gust 31kt 9700m - Clouds and Visibility OK 1021 No Significant change UWKD 251130Z 28011G16MPS CAVOK 26/04 Q1021 R29/CLRD70 NOSIG RMK QFE755/1006
VFR 25°C / 4°C 300º 17kt Gust 27kt 9700m - Clouds and Visibility OK 1021 No Significant change UWKD 251100Z 30009G14MPS CAVOK 25/04 Q1021 R29/CLRD70 NOSIG RMK QFE755/1006

VFR

15°C / 4°C

[Meer]
Wind 300º 10kt
Zicht 9700m
Weer -
Wolken Clouds and Visibility OK
Luchtdruk 1018
Wijzigen No Significant change
Ruw UWKD 252230Z 30005MPS CAVOK 15/04 Q1018 R29/CLRD70 NOSIG RMK QFE752/1003

VFR

17°C / 4°C

[Meer]
Wind 290º 10kt
Zicht 9700m
Weer -
Wolken Clouds and Visibility OK
Luchtdruk 1018
Wijzigen No Significant change
Ruw UWKD 252200Z 29005MPS CAVOK 17/04 Q1018 R29/CLRD70 NOSIG RMK QFE752/1003

VFR

17°C / 4°C

[Meer]
Wind 280º 12kt
Zicht 9700m
Weer -
Wolken Clouds and Visibility OK
Luchtdruk 1018
Wijzigen No Significant change
Ruw UWKD 252130Z 28006MPS CAVOK 17/04 Q1018 R29/CLRD70 NOSIG RMK QFE752/1003

VFR

17°C / 4°C

[Meer]
Wind 280º 14kt
Zicht 9700m
Weer -
Wolken Clouds and Visibility OK
Luchtdruk 1018
Wijzigen No Significant change
Ruw UWKD 252100Z 28007MPS CAVOK 17/04 Q1018 R29/70D NOSIG RMK QFE752/1003

VFR

17°C / 4°C

[Meer]
Wind 280º 14kt
Zicht 9700m
Weer -
Wolken Clouds and Visibility OK
Luchtdruk 1018
Wijzigen No Significant change
Ruw UWKD 252030Z 28007MPS CAVOK 17/04 Q1018 R29/CLRD70 NOSIG RMK QFE752/1003

VFR

18°C / 4°C

[Meer]
Wind 270º 14kt
Zicht 9700m
Weer -
Wolken Clouds and Visibility OK
Luchtdruk 1018
Wijzigen No Significant change
Ruw UWKD 252000Z 27007MPS CAVOK 18/04 Q1018 R29/70D NOSIG RMK QFE752/1003

VFR

18°C / 4°C

[Meer]
Wind 280º 16kt
Zicht 9700m
Weer -
Wolken Scattered Clouds 3300ft
Luchtdruk 1018
Wijzigen No Significant change
Ruw UWKD 251930Z 28008MPS 9999 SCT033 18/04 Q1018 R29/CLRD70 NOSIG RMK QFE752/1003

VFR

19°C / 4°C

[Meer]
Wind 270º 16kt
Zicht 9700m
Weer -
Wolken Scattered Clouds 3200ft
Luchtdruk 1018
Wijzigen No Significant change
Ruw UWKD 251900Z 27008MPS 9999 SCT032 19/04 Q1018 R29/CLRD70 NOSIG RMK QFE753/1004

VFR

19°C / 3°C

[Meer]
Wind 270º 14kt
Zicht 9700m
Weer -
Wolken Clouds and Visibility OK
Luchtdruk 1019
Wijzigen No Significant change
Ruw UWKD 251830Z 27007MPS CAVOK 19/03 Q1019 R29/CLRD70 NOSIG RMK QFE753/1004

VFR

20°C / 4°C

[Meer]
Wind 280º 14kt
Zicht 9700m
Weer -
Wolken Clouds and Visibility OK
Luchtdruk 1019
Wijzigen No Significant change
Ruw UWKD 251800Z 28007MPS CAVOK 20/04 Q1019 R29/CLRD70 NOSIG RMK QFE753/1004

VFR

20°C / 4°C

[Meer]
Wind 280º 16kt
Zicht 9700m
Weer -
Wolken Clouds and Visibility OK
Luchtdruk 1019
Wijzigen No Significant change
Ruw UWKD 251730Z 28008MPS CAVOK 20/04 Q1019 R29/CLRD70 NOSIG RMK QFE753/1004

VFR

21°C / 4°C

[Meer]
Wind 280º 16kt
Zicht 9700m
Weer -
Wolken Clouds and Visibility OK
Luchtdruk 1019
Wijzigen No Significant change
Ruw UWKD 251700Z 28008MPS CAVOK 21/04 Q1019 R29/CLRD70 NOSIG RMK QFE753/1004

VFR

22°C / 4°C

[Meer]
Wind 280º 14kt
Zicht 9700m
Weer -
Wolken Clouds and Visibility OK
Luchtdruk 1019
Wijzigen No Significant change
Ruw UWKD 251630Z 28007MPS CAVOK 22/04 Q1019 R29/70D NOSIG RMK QFE753/1004

VFR

23°C / 4°C

[Meer]
Wind 280º 16kt Gust 25kt
Zicht 9700m
Weer -
Wolken Clouds and Visibility OK
Luchtdruk 1019
Wijzigen No Significant change
Ruw UWKD 251600Z 28008G13MPS CAVOK 23/04 Q1019 R29/CLRD70 NOSIG RMK QFE753/1004

VFR

23°C / 4°C

[Meer]
Wind 280º 19kt Gust 29kt
Zicht 9700m
Weer -
Wolken Clouds and Visibility OK
Luchtdruk 1019
Wijzigen No Significant change
Ruw UWKD 251530Z 28010G15MPS CAVOK 23/04 Q1019 R29/CLRD70 NOSIG RMK QFE753/1004

VFR

24°C / 4°C

[Meer]
Wind 290º 19kt Gust 29kt
Zicht 9700m
Weer -
Wolken Clouds and Visibility OK
Luchtdruk 1019
Wijzigen No Significant change
Ruw UWKD 251500Z 29010G15MPS CAVOK 24/04 Q1019 R29/CLRD70 NOSIG RMK QFE753/1004

VFR

24°C / 3°C

[Meer]
Wind 280º 17kt Gust 27kt
Zicht 9700m
Weer -
Wolken Clouds and Visibility OK
Luchtdruk 1019
Wijzigen No Significant change
Ruw UWKD 251430Z 28009G14MPS CAVOK 24/03 Q1019 R29/70D NOSIG RMK QFE753/1004

VFR

25°C / 3°C

[Meer]
Wind 280º 19kt Gust 29kt
Zicht 9700m
Weer -
Wolken Clouds and Visibility OK
Luchtdruk 1020
Wijzigen No Significant change
Ruw UWKD 251400Z 28010G15MPS CAVOK 25/03 Q1020 R29/CLRD70 NOSIG RMK QFE753/1005

VFR

25°C / 3°C

[Meer]
Wind 280º 19kt Gust 29kt
Zicht 9700m
Weer -
Wolken Clouds and Visibility OK
Luchtdruk 1020
Wijzigen No Significant change
Ruw UWKD 251330Z 28010G15MPS CAVOK 25/03 Q1020 R29/CLRD70 NOSIG RMK QFE754/1005

VFR

25°C / 3°C

[Meer]
Wind 280º 19kt Gust 29kt
Zicht 9700m
Weer -
Wolken Clouds and Visibility OK
Luchtdruk 1020
Wijzigen No Significant change
Ruw UWKD 251300Z 28010G15MPS CAVOK 25/03 Q1020 R29/70D NOSIG RMK QFE754/1005

VFR

25°C / 4°C

[Meer]
Wind 270º 19kt Gust 29kt
Zicht 9700m
Weer -
Wolken Clouds and Visibility OK
Luchtdruk 1021
Wijzigen No Significant change
Ruw UWKD 251230Z 27010G15MPS CAVOK 25/04 Q1021 R29/CLRD70 NOSIG RMK QFE754/1006

VFR

25°C / 4°C

[Meer]
Wind 280º 19kt Gust 29kt
Zicht 9700m
Weer -
Wolken Clouds and Visibility OK
Luchtdruk 1021
Wijzigen No Significant change
Ruw UWKD 251200Z 28010G15MPS CAVOK 25/04 Q1021 R29/CLRD70 NOSIG RMK QFE754/1006

VFR

26°C / 4°C

[Meer]
Wind 280º 21kt Gust 31kt
Zicht 9700m
Weer -
Wolken Clouds and Visibility OK
Luchtdruk 1021
Wijzigen No Significant change
Ruw UWKD 251130Z 28011G16MPS CAVOK 26/04 Q1021 R29/CLRD70 NOSIG RMK QFE755/1006

VFR

25°C / 4°C

[Meer]
Wind 300º 17kt Gust 27kt
Zicht 9700m
Weer -
Wolken Clouds and Visibility OK
Luchtdruk 1021
Wijzigen No Significant change
Ruw UWKD 251100Z 30009G14MPS CAVOK 25/04 Q1021 R29/CLRD70 NOSIG RMK QFE755/1006

TAF voor 55.61°N 49.28°O (UWKD)

From till


Maximum Temperature 16ºC on . Minimum Temperature 13ºC on .
From till Wind 280º 10kt. Gust 23kt. Visibility 9700m. Scattered Clouds 3000ft.
Temporarly from till Visibility 4000m. Light Showers Rain . Broken Clouds 2000ft.
Becoming from till

Ruw: TAF UWKD 251950Z 2521/2621 28005G12MPS 9999 SCT030 TX16/2612Z TN13/2602Z TEMPO 2602/2605 4000 -SHRA BKN020CB BECMG 2606/2608 35006G12MPS SCT020

Radar en neerslag nowcast voor 55.61°N 49.28°O

Motregen
Licht
Matig
Zwaar
Zeer zwaar
Hagel

De locatiemarkering is op 55.61°N 49.28°O geplaatst . Deze animatie toont de neerslagradar voor het geselecteerde tijdvak, alsmede een 2h voorspelling. Oranje kruisjes geven de bliksem aan. Gegevens verstrekt door nowcast.de (beschikbaar in de VS, Europa en Australië). Motregen of lichte sneeuwval kan onzichtbaar zijn voor de radar. De neerslagintensiteit heeft een kleurcode, gaande van turkoois tot rood.

Huidige satelliet- en regenbeelden voor 55.61°N 49.28°O

De locatiemarkering is op 55.61°N 49.28°O geplaatst. [Meer]

Het realtime satellietbeeld combineert zichtbaar licht overdag met infraroodstraling 's nachts. 's Nachts is het beeld niet donker, omdat infraroodstraling temperatuurverschillen kan waarnemen. Helaas zijn lage wolken en mist moeilijk te onderscheiden van grondtemperaturen en kunnen dus 's nachts bijna onzichtbaar zijn. Meteosat-satellietbeelden voor Europa worden elke 5 minuten in real time bijgewerkt. De beelden van GOES-16/GOES-17 (Noord- en Zuid-Amerika) en Himawari (Azië) worden om de 10 minuten bijgewerkt.

De neerslag wordt geschat met behulp van radar en satellieten. Neerslagschattingen van satellieten zijn 's nachts minder nauwkeurig dan overdag.

© 2024 meteoblue, NOAA Satellites GOES-16 and EUMETSAT. Bliksemgegevens verstrekt door nowcast.

Terug naar boven
×
Hallo daar,
Het lijkt erop dat u een advertentieblokker gebruikt.

Reclame is van essentieel belang om onze gratis website te onderhouden met unieke details en nauwkeurigheid.

Gelieve www.meteoblue.com te whitelisten op uw ad blocker of overweeg één van onze producten:

Heeft u al een abonnement?
Dan kunt u inloggen.